Weather Roundup
Issued by NWS

Home | Current Version | Previous Version | Graphics & Text | Print | Product List | Glossary Off
Versions: 1 2 3 4 5 6 7 8 9 10 11 12 13 14 15 16 17 18 19 20 21 22 23 24 25 26 27 28 29 30 31 32 33 34 35 36 37 38 39 40 41 42 43 44 45 46 47 48 49 50

000
NZUS93 KARX 191859
HRRWXR

CURRENT HOURLY OBSERVATIONS ACROSS
MUCH OF THE UPPER MISSISSIPPI VALLEY
NATIONAL WEATHER SERVICE LA CROSSE WI
200 PM CDT TUE SEP 19 2017


...SOUTHEAST MINNESOTA...


CITY           SKY/WX    TMP DP  RH WIND       PRES   REMARKS
ROCHESTER      SUNNY     76  62  62 S15G24    29.88F
ROCHESTER/MAYO FAIR      75  60  58 E14G23    29.87F
WINONA         SUNNY     77  63  61 SE9       29.89F
AUSTIN         MOSUNNY   75  63  64 S13G18    29.86F
ALBERT LEA     SUNNY     81  64  57 SE20      29.83F
DODGE CENTER   SUNNY     75  59  57 SE14G22   29.86F
PRESTON        SUNNY     75  60  60 SE13      29.90F
OWATONNA       MOSUNNY   79  63  57 SE18G26   29.83F
FARIBAULT      PTSUNNY   77  63  61 SE15G24   29.83F
$$

...ELSEWHERE IN MINNESOTA...


CITY           SKY/WX    TMP DP  RH WIND       PRES   REMARKS
MINNEAPOLIS    PTSUNNY   77  64  64 SE16      29.82F
INTNL FALLS    CLOUDY    67  58  72 SE13      29.82F
DULUTH         MOSUNNY   66  59  78 SE14      29.89F
RED WING       SUNNY     79  61  53 SE13G18   29.84F
REDWOOD FALLS  CLOUDY    73  63  70 SE18G28   29.74F
MANKATO        MOSUNNY   76  65  68 S18G24    29.79F
WORTHINGTON    PTSUNNY   74  67  78 SE20G25   29.73F
FAIRMONT       MOSUNNY   77  66  68 SE22G28   29.78F
$$

...SOUTHWEST WISCONSIN...


CITY           SKY/WX    TMP DP  RH WIND       PRES   REMARKS
LA CROSSE      PTSUNNY   80  64  58 SE14      29.89F
PRAIRIE DU CHI MOSUNNY   80  60  50 SE7       29.90F
BOSCOBEL       MOSUNNY   82  62  50 VRB6G18   29.91F
LONE ROCK      NOT AVBL
PLATTEVILLE    MOSUNNY   80  64  59 S10       29.94F
FORT MC COY    MOSUNNY   77  61  56 SE9       29.93F
MAUSTON-NEW LI CLEAR     77  57  49 S9        29.94F
VIROQUA        MOCLDY    77  64  65 SE13      29.94F
WIS DELLS      NOT AVBL
$$

...ELSEWHERE IN WISCONSIN...


CITY           SKY/WX    TMP DP  RH WIND       PRES   REMARKS
MILWAUKEE      CLOUDY    70  66  87 E7        29.97F FOG
MADISON        MOSUNNY   79  54  41 S10       29.94F
GREEN BAY      MOSUNNY   74  61  63 E10       29.98F
EAU CLAIRE     MOSUNNY   76  61  59 SE12      29.89F
BLACK RVR FLS  FAIR      80  58  46 SE10      29.92F
MEDFORD        MOSUNNY   73  55  53 SE13G18   29.96F
WAUSAU         SUNNY     74  54  49 S8G18     29.95F
WIS RAPIDS     SUNNY     79  52  38 SE9       29.96F
MARSHFIELD     SUNNY     76  53  44 SE12      29.95F
RICE LAKE      MOSUNNY   74  60  60 SE10      29.91F
$$

...NORTHEAST IOWA...


CITY           SKY/WX    TMP DP  RH WIND       PRES   REMARKS
WATERLOO       MOSUNNY   76  63  64 SE15      29.87F
DUBUQUE        MOSUNNY   76  64  66 SE12      29.93F
DECORAH        MOSUNNY   79  63  57 S13       29.90F
MASON CITY     MOSUNNY   78  63  59 SE16G28   29.85F
CHARLES CITY   MOSUNNY   77  64  65 SE16      29.88F
OELWEIN        PTSUNNY   79  64  61 SE17      29.91F
$$

...ELSEWHERE IN IOWA...


CITY           SKY/WX    TMP DP  RH WIND       PRES   REMARKS
DES MOINES     MOSUNNY   80  68  66 S16       29.82F
IOWA CITY      PTSUNNY   78  66  66 SE14      29.92F
FORT DODGE     PTSUNNY   77  68  73 SE8       29.81F
MARSHALLTOWN   MOSUNNY   76  67  73 SE16      29.86F
CEDAR RAPIDS   MOSUNNY   76  66  71 SE9       29.91F
$$

...NORTHERN ILLINOIS...


CITY           SKY/WX    TMP DP  RH WIND       PRES   REMARKS
CHICAGO-OHARE  PTSUNNY   77  65  66 NE13      29.93F
CHICAGO-MIDWAY MOSUNNY   76  64  66 NE12      29.93F
MOLINE         MOSUNNY   79  64  60 E6        29.92F
ROCKFORD       MOSUNNY   77  64  64 SE6       29.94F
PEORIA         MOSUNNY   78  67  68 VRB3      29.93F
$$

NOTE: "FAIR" INDICATES FEW OR NO CLOUDS BELOW 12,000 FEET WITH NO
SIGNIFICANT WEATHER AND/OR OBSTRUCTIONS TO VISIBILITY. WIND
SPEEDS ARE IN MILES-PER-HOUR.




USA.gov is the U.S. government's official web portal to all federal, state and local government web resources and services.